Time,TemperatureF,DewpointF,PressureIn,WindDirection,WindDirectionDegrees,WindSpeedMPH,WindSpeedGustMPH,Humidity,HourlyPrecipIn,Conditions,Clouds,dailyrainin,SoftwareType,DateUTC
2013-08-29 00:12:00,62.0,49.0,-100.00,NE,40,2.0,3.0,62,0.00,,,0.00,,2013-08-29 06:12:00,
2013-08-29 00:43:00,63.0,49.0,-100.00,North,357,1.0,2.0,61,0.00,,,0.00,,2013-08-29 06:43:00,
2013-08-29 01:12:00,60.0,49.0,-100.00,SSE,155,1.0,2.0,67,0.00,,,0.00,,2013-08-29 07:12:00,
2013-08-29 01:42:00,59.0,51.0,-100.00,SSW,205,5.0,6.0,74,0.00,,,0.00,,2013-08-29 07:42:00,
2013-08-29 01:53:00,59.0,51.0,-100.00,SSW,205,5.0,6.0,74,0.00,,,0.00,,2013-08-29 07:53:00,
2013-08-29 02:02:00,59.0,51.0,-100.00,SSW,205,5.0,6.0,74,0.00,,,0.00,,2013-08-29 08:02:00,
2013-08-29 02:22:00,60.0,50.0,-100.00,SSW,209,5.0,6.0,69,0.00,,,0.00,,2013-08-29 08:22:00,
2013-08-29 02:32:00,60.0,50.0,-100.00,SSW,209,5.0,6.0,69,0.00,,,0.00,,2013-08-29 08:32:00,
2013-08-29 02:52:00,60.0,50.0,-100.00,SW,233,2.0,3.0,71,0.00,,,0.00,,2013-08-29 08:52:00,
2013-08-29 03:01:00,60.0,50.0,-100.00,SW,233,2.0,3.0,71,0.00,,,0.00,,2013-08-29 09:01:00,
2013-08-29 03:21:00,58.0,50.0,-100.00,SE,127,4.0,4.0,73,0.00,,,0.00,,2013-08-29 09:21:00,
2013-08-29 03:34:00,58.0,50.0,-100.00,SE,127,4.0,4.0,73,0.00,,,0.00,,2013-08-29 09:34:00,
2013-08-29 03:55:00,57.0,49.0,-100.00,NNW,328,3.0,4.0,74,0.00,,,0.00,,2013-08-29 09:55:00,
2013-08-29 04:06:00,57.0,49.0,-100.00,NNW,328,3.0,4.0,74,0.00,,,0.00,,2013-08-29 10:06:00,
2013-08-29 04:24:00,57.0,49.0,-100.00,NNE,20,4.0,5.0,74,0.00,,,0.00,,2013-08-29 10:24:00,
2013-08-29 04:33:00,57.0,49.0,-100.00,NNE,20,4.0,5.0,74,0.00,,,0.00,,2013-08-29 10:33:00,
2013-08-29 04:53:00,55.0,49.0,-100.00,WSW,258,6.0,7.0,80,0.00,,,0.00,,2013-08-29 10:53:00,
2013-08-29 05:03:00,55.0,49.0,-100.00,WSW,258,6.0,7.0,80,0.00,,,0.00,,2013-08-29 11:03:00,
2013-08-29 05:52:00,54.0,49.0,-100.00,ESE,117,2.0,2.0,81,0.00,,,0.00,,2013-08-29 11:52:00,
2013-08-29 06:02:00,54.0,49.0,-100.00,ESE,117,2.0,2.0,81,0.00,,,0.00,,2013-08-29 12:02:00,
2013-08-29 06:22:00,54.0,48.0,-100.00,WSW,241,3.0,4.0,80,0.00,,,0.00,,2013-08-29 12:22:00,
2013-08-29 06:32:00,54.0,48.0,-100.00,WSW,241,3.0,4.0,80,0.00,,,0.00,,2013-08-29 12:32:00,
2013-08-29 06:42:00,54.0,48.0,-100.00,WSW,241,3.0,4.0,80,0.00,,,0.00,,2013-08-29 12:42:00,
2013-08-29 07:12:00,54.0,49.0,-100.00,North,359,2.0,4.0,82,0.00,,,0.00,,2013-08-29 13:12:00,
2013-08-29 07:42:00,54.0,49.0,-100.00,NW,312,0.0,0.0,82,0.00,,,0.00,,2013-08-29 13:42:00,
2013-08-29 08:11:00,53.0,49.0,-100.00,West,268,1.0,2.0,84,0.00,,,0.00,,2013-08-29 14:11:00,
2013-08-29 08:42:00,55.0,50.0,-100.00,WSW,250,0.0,1.0,82,0.00,,,0.00,,2013-08-29 14:42:00,
2013-08-29 09:12:00,63.0,51.0,-100.00,SSE,148,2.0,3.0,65,0.00,,,0.00,,2013-08-29 15:12:00,
2013-08-29 09:43:00,64.0,52.0,-100.00,SW,233,4.0,6.0,66,0.00,,,0.00,,2013-08-29 15:43:00,
2013-08-29 10:13:00,68.0,53.0,-100.00,SW,223,4.0,6.0,59,0.00,,,0.00,,2013-08-29 16:13:00,
2013-08-29 10:43:00,75.0,54.0,-100.00,SSW,192,5.0,8.0,49,0.00,,,0.00,,2013-08-29 16:43:00,
2013-08-29 11:44:00,80.0,51.0,-100.00,South,171,5.0,7.0,36,0.00,,,0.00,,2013-08-29 17:44:00,
2013-08-29 12:11:00,79.0,54.0,-100.00,SSW,210,9.0,11.0,43,0.00,,,0.00,,2013-08-29 18:11:00,
2013-08-29 12:42:00,84.0,53.0,-100.00,SE,143,9.0,12.0,35,0.00,,,0.00,,2013-08-29 18:42:00,
2013-08-29 12:52:00,85.0,53.0,-100.00,SSE,151,7.0,12.0,33,0.00,,,0.00,,2013-08-29 18:52:00,
2013-08-29 13:01:00,85.0,53.0,-100.00,SSE,151,7.0,12.0,33,0.00,,,0.00,,2013-08-29 19:01:00,
2013-08-29 13:22:00,85.0,53.0,-100.00,SE,138,9.0,13.0,34,0.00,,,0.00,,2013-08-29 19:22:00,
2013-08-29 13:32:00,85.0,53.0,-100.00,SE,138,9.0,13.0,34,0.00,,,0.00,,2013-08-29 19:32:00,
2013-08-29 13:52:00,86.0,53.0,-100.00,SE,143,8.0,11.0,32,0.00,,,0.00,,2013-08-29 19:52:00,
2013-08-29 14:02:00,86.0,53.0,-100.00,SE,143,8.0,11.0,32,0.00,,,0.00,,2013-08-29 20:02:00,
2013-08-29 14:21:00,86.0,53.0,-100.00,SE,138,9.0,12.0,32,0.00,,,0.00,,2013-08-29 20:21:00,
2013-08-29 14:32:00,86.0,53.0,-100.00,SE,138,9.0,12.0,32,0.00,,,0.00,,2013-08-29 20:32:00,
2013-08-29 14:52:00,87.0,53.0,-100.00,SW,223,13.0,19.0,30,0.00,,,0.00,,2013-08-29 20:52:00,
2013-08-29 15:01:00,87.0,53.0,-100.00,SW,223,13.0,19.0,30,0.00,,,0.00,,2013-08-29 21:01:00,
2013-08-29 15:22:00,89.0,50.0,-100.00,South,185,13.0,17.0,27,0.00,,,0.00,,2013-08-29 21:22:00,
2013-08-29 15:33:00,89.0,50.0,-100.00,South,185,13.0,17.0,27,0.00,,,0.00,,2013-08-29 21:33:00,
2013-08-29 15:54:00,87.0,50.0,-100.00,SSW,203,9.0,12.0,28,0.00,,,0.00,,2013-08-29 21:54:00,
2013-08-29 16:04:00,87.0,50.0,-100.00,SSW,203,9.0,12.0,28,0.00,,,0.00,,2013-08-29 22:04:00,
2013-08-29 16:24:00,86.0,47.0,-100.00,West,264,10.0,15.0,26,0.00,,,0.00,,2013-08-29 22:24:00,
2013-08-29 16:33:00,86.0,47.0,-100.00,West,264,10.0,15.0,26,0.00,,,0.00,,2013-08-29 22:33:00,
2013-08-29 16:53:00,87.0,46.0,-100.00,NE,34,8.0,13.0,24,0.00,,,0.00,,2013-08-29 22:53:00,
2013-08-29 17:03:00,87.0,46.0,-100.00,NE,34,8.0,13.0,24,0.00,,,0.00,,2013-08-29 23:03:00,
2013-08-29 17:12:00,87.0,46.0,-100.00,NE,34,8.0,13.0,24,0.00,,,0.00,,2013-08-29 23:12:00,
2013-08-29 17:43:00,85.0,49.0,-100.00,NW,313,13.0,15.0,28,0.00,,,0.00,,2013-08-29 23:43:00,
2013-08-29 18:12:00,84.0,52.0,-100.00,North,7,14.0,20.0,33,0.00,,,0.00,,2013-08-30 00:12:00,
2013-08-29 18:42:00,84.0,50.0,-100.00,North,8,13.0,19.0,31,0.00,,,0.00,,2013-08-30 00:42:00,
2013-08-29 19:12:00,85.0,49.0,-100.00,NNE,20,9.0,12.0,29,0.00,,,0.00,,2013-08-30 01:12:00,
2013-08-29 19:42:00,85.0,49.0,-100.00,NE,37,6.0,7.0,29,0.00,,,0.00,,2013-08-30 01:42:00,
2013-08-29 20:11:00,81.0,52.0,-100.00,WNW,299,4.0,5.0,36,0.00,,,0.00,,2013-08-30 02:11:00,
2013-08-29 20:42:00,76.0,50.0,-100.00,WNW,291,1.0,2.0,40,0.00,,,0.00,,2013-08-30 02:42:00,
2013-08-29 21:12:00,74.0,51.0,-100.00,ESE,120,3.0,4.0,43,0.00,,,0.00,,2013-08-30 03:12:00,
2013-08-29 21:43:00,75.0,49.0,-100.00,SSE,151,6.0,7.0,39,0.00,,,0.00,,2013-08-30 03:43:00,
2013-08-29 22:14:00,70.0,49.0,-100.00,ESE,121,7.0,8.0,48,0.00,,,0.00,,2013-08-30 04:14:00,
2013-08-29 22:24:00,69.0,49.0,-100.00,SSE,151,3.0,4.0,48,0.00,,,0.00,,2013-08-30 04:24:00,
2013-08-29 22:44:00,71.0,47.0,-100.00,SSW,209,3.0,4.0,42,0.00,,,0.00,,2013-08-30 04:44:00,
2013-08-29 23:12:00,69.0,47.0,-100.00,SW,224,4.0,5.0,45,0.00,,,0.00,,2013-08-30 05:12:00,
2013-08-29 23:42:00,67.0,48.0,-100.00,South,175,2.0,3.0,50,0.00,,,0.00,,2013-08-30 05:42:00,